カタログに戻る

SL-16 DEB

運用中LEO
NORAD 22605·DEBRIS·🇷🇺 Russia

打ち上げ Mar 26, 1993 から Baikonur Cosmodrome

Loading…

次のパス (今後24時間)

TLE

最新Source: Space-Track

元期: Sep 13, 2026, 10:11 UTC

1 22605U 93016P   26256.42464387  .00000089  00000-0  99582-4 0  9997
2 22605  70.9975 160.6514 0131699 269.0922 205.7448 13.91182229696555

AllMySatでSL-16 DEBをリアルタイム追跡

Download on the App Store